Rotorua (NZRO)

Aerodrome — Elev 935
New Zealand
S038.06.33.001 E176.19.01.999
Loading chart...

Current Weather

NZRO 250330Z 01004KT 47KM BKN050 BKN065 15/11 Q1023 RMK AUTO VATSIM USE ONLY

Published 39 minutes ago

Airport Activity

Loading chart...
Loading chart...

Standard ATC Positions

CallsignRadio Name / Freq / Voice Room / TypeFrequencyVoice RoomType
NZCH-B_CTR Bay Approach
119.500
nzch-b_ctr
119.500nzch-b_ctr
NZRO_TWR Rotorua Tower
121.200
nzro_twr
121.200nzro_twr
NZRO_ATIS Rotorua ATIS
128.800
nzro_atis
128.800nzro_atis

Charts

Ground Charts

Aerodrome (1) & (2)